Tracking 28902 objects as of 19-May-2024
HD Live streaming from Space Station
objects crossing your sky now

FAISAT

Track FAISAT now!
10-day predictions
FAISAT is classified as:


NORAD ID: 23465
Int'l Code: 1995-002C
Perigee: 971.1 km
Apogee: 1,028.3 km
Inclination: 82.9 °
Period: 105.0 minutes
Semi major axis: 7370 km
RCS: 0.6839 m2 (medium)
Launch date: January 24, 1995
Source: United States (US)
Launch site: PLESETSK MISSILE AND SPACE COMPLEX (PKMTR)
Your satellite tracking list
Your tracking list is empty




NASA's NSSDC Master Catalog

Two Line Element Set (TLE):
1 23465U 95002C   24139.73708979  .00000068  00000-0  57338-4 0  9999
2 23465  82.9292 224.1440 0038816 114.3927   7.3358 13.71961809467967
Source of the keplerian elements: AFSPC